Regional Weather Roundup
Issued by NWS Sioux Falls, SD

Home | Current Version | Previous Version | Graphics & Text | Print | Product List | Glossary Off
Versions: 1 2 3 4 5 6 7 8 9 10 11 12 13 14 15 16 17 18 19 20 21 22 23 24 25 26 27 28 29 30 31 32 33 34 35 36 37 38 39 40 41 42 43 44 45 46 47 48 49 50

000
ASUS43 KFSD 261702
RWRFSD

WEATHER ROUNDUP FOR SE SOUTH DAKOTA/SW MINNESOTA/NW IOWA
NATIONAL WEATHER SERVICE SIOUX FALLS SD
1200 PM CDT FRI MAY 26 2017

NOTE: "FAIR" INDICATES FEW OR NO CLOUDS BELOW 12,000 FEET WITH NO
SIGNIFICANT WEATHER AND OR OBSTRUCTIONS TO VISIBILITY.


SDZ038>040-050-052>070-261800-
SOUTHEAST SOUTH DAKOTA

CITY           SKY/WX    TMP DP  RH WIND       PRES   REMARKS
BROOKINGS      SUNNY     65  49  56 W20       29.79S
CHAMBERLAIN    NOT AVBL
HURON          SUNNY     67  43  41 W14G22    29.81S
MADISON        FAIR      64  50  59 NW17G24   29.82R
MITCHELL       SUNNY     68  43  40 W13G20    29.83S
SIOUX FALLS    MOSUNNY   70  50  49 NW15      29.80R
WINNER         FAIR      66  41  40 N10G21    29.89F
$$

MNZ071-072-080-081-089-090-097-098-261800-
SOUTHWEST MINNESOTA

CITY           SKY/WX    TMP DP  RH WIND       PRES   REMARKS
FAIRMONT       SUNNY     70  58  65 SW5       29.76S
JACKSON        MOSUNNY   70  52  52 NW9       29.78R
LUVERNE        SUNNY     70  43  37 NW15      29.79S
MARSHALL       SUNNY     69  51  52 NW16G22   29.76S
MONTEVIDEO     SUNNY     72  48  43 N13       29.75R
PIPESTONE      SUNNY     68  45  42 NW14      29.79S
REDWOOD FALLS  SUNNY     73  50  44 NW10      29.74R
TRACY          SUNNY     71  54  54 W9G20     29.76F
WINDOM         CLOUDY    70  50  49 NW10      29.77R
WORTHINGTON    CLOUDY    71  52  50 NW13      29.79R
$$

IAZ001>003-012>014-020>022-031-032-NEZ013-014-SDZ071-261800-
NORTHWEST IOWA

CITY           SKY/WX    TMP DP  RH WIND       PRES   REMARKS
CHEROKEE       MOSUNNY   70  56  61 NW7       29.78R
DENISON        SUNNY     73  57  56 N14       29.79R
ESTHERVILLE    MOSUNNY   69  57  65 W5        29.76R
LE MARS        CLOUDY    70  52  52 NW15      29.81R
ORANGE CITY    MOSUNNY   70  54  56 NW14      29.80S
SHELDON        MOSUNNY   70  50  49 NW14      29.78R
SIOUX CITY     PTSUNNY   69  53  56 NW15      29.81R
SPENCER        CLOUDY    74  57  55 N9        29.77R
STORM LAKE     SUNNY     72  55  56 N8        29.78R
$$

ABBREVIATIONS USED IN REMARKS
   TC - TEMPERATURE IN CELSIUS
  WCI - WIND CHILL INDEX
   HX - HEAT INDEX
  VSB - VISIBILITY





USA.gov is the U.S. government's official web portal to all federal, state and local government web resources and services.